Charleston, SC

11:00 AM EST on February 19, 2017 (GMT -0500)
Charleston Executive

Weather History for KJZI - November, 2012

Change the Weather History Date:

Saturday, November 3, 2012

  Actual Average (KCHS) Record (KCHS)
Temperature  
Mean Temperature 58 °F -  
Max Temperature 68 °F 74 °F 87 °F (1972)
Min Temperature 48 °F 53 °F 27 °F (1954)
Degree Days  
Heating Degree Days 7    
Growing Degree Days 8 (Base 50)    
Moisture  
Dew Point 43 °F    
Average Humidity 61    
Maximum Humidity 88    
Minimum Humidity 28    
Precipitation  
Precipitation 0.00 in - - ()
Sea Level Pressure  
Sea Level Pressure 30.05 in    
Wind  
Wind Speed 4 mph (NE)    
Max Wind Speed 10 mph    
Max Gust Speed -    
Visibility 10 miles    
Events      
Averages and records for this station are not official NWS values.
T = Trace of Precipitation, MM = Missing Value Source: NWS Daily Summary

Daily Weather History Graph

Daily Weather History Graph

Search for Another Location

Airport or City:

Trip Planner

Search our weather history database for the weather conditions in past years. The results will help you decide how hot, cold, wet, or windy it might be!

Date:

Astronomy

Nov. 03, 2012 Rise Set
Actual Time 7:39 AM EDT 6:26 PM EDT
Civil Twilight 7:14 AM EDT 6:52 PM EDT
Nautical Twilight 6:44 AM EDT 7:21 PM EDT
Astronomical Twilight 6:16 AM EDT 7:50 PM EDT
Moon 10:11 PM EDT (11/3) 11:37 AM EDT (11/3)
Length of Visible Light 11h 38m
Length of Day
10h 47m
Waning Gibbous, 80% of the Moon is Illuminated
Nov 3
Waning Gibbous
Nov 6
Last Quarter
Nov 13
New
Nov 20
First Quarter
Nov 28
Full

Hourly Weather History & Observations

Time (EDT) Temp. Dew Point Humidity Pressure Visibility Wind Dir Wind Speed Gust Speed Precip Events Conditions
12:15 AM 60.8 °F 46.4 °F 59% 29.95 in 10.0 mi WSW 4.6 mph - 0.00 in   Clear
12:35 AM 59.0 °F 46.4 °F 63% 29.95 in 10.0 mi WSW 5.8 mph - 0.00 in   Clear
12:55 AM 59.0 °F 46.4 °F 63% 29.95 in 10.0 mi WSW 3.5 mph - 0.00 in   Clear
1:15 AM 57.2 °F 46.4 °F 67% 29.96 in 10.0 mi West 5.8 mph - 0.00 in   Clear
1:35 AM 53.6 °F 46.4 °F 77% 29.96 in 10.0 mi Calm Calm - 0.00 in   Clear
1:55 AM 53.6 °F 46.4 °F 77% 29.97 in 10.0 mi WNW 6.9 mph - 0.00 in   Clear
2:15 AM 55.4 °F 46.4 °F 72% 29.97 in 10.0 mi Calm Calm - 0.00 in   Clear
2:35 AM 53.6 °F 46.4 °F 77% 29.97 in 10.0 mi Calm Calm - 0.00 in   Clear
2:55 AM 53.6 °F 46.4 °F 77% 29.97 in 10.0 mi NW 6.9 mph - 0.00 in   Clear
3:15 AM 51.8 °F 46.4 °F 82% 29.98 in 10.0 mi Calm Calm - 0.00 in   Clear
3:35 AM 53.6 °F 46.4 °F 77% 29.98 in 10.0 mi North 6.9 mph - 0.00 in   Clear
3:55 AM 53.6 °F 46.4 °F 77% 29.98 in 10.0 mi North 4.6 mph - 0.00 in   Clear
4:15 AM 51.8 °F 46.4 °F 82% 29.99 in 10.0 mi North 5.8 mph - 0.00 in   Clear
4:35 AM 51.8 °F 44.6 °F 76% 29.99 in 10.0 mi North 4.6 mph - 0.00 in   Clear
4:55 AM 51.8 °F 42.8 °F 71% 30.00 in 10.0 mi Calm Calm - 0.00 in   Clear
5:15 AM 51.8 °F 42.8 °F 71% 30.01 in 10.0 mi North 4.6 mph - 0.00 in   Clear
5:35 AM 51.8 °F 42.8 °F 71% 30.01 in 10.0 mi North 5.8 mph - 0.00 in   Clear
5:55 AM 51.8 °F 42.8 °F 71% 30.02 in 10.0 mi North 5.8 mph - 0.00 in   Clear
6:15 AM 50.0 °F 41.0 °F 71% 30.03 in 10.0 mi Calm Calm - 0.00 in   Clear
6:35 AM 51.8 °F 39.2 °F 62% 30.04 in 10.0 mi Calm Calm - 0.00 in   Clear
6:55 AM 50.0 °F 39.2 °F 66% 30.04 in 10.0 mi North 3.5 mph - 0.00 in   Clear
7:15 AM 50.0 °F 39.2 °F 66% 30.05 in 10.0 mi Calm Calm - 0.00 in   Clear
7:35 AM 48.2 °F 39.2 °F 71% 30.06 in 10.0 mi North 5.8 mph - 0.00 in   Clear
7:55 AM 48.2 °F 41.0 °F 76% 30.07 in 10.0 mi North 5.8 mph - 0.00 in   Clear
8:15 AM 51.8 °F 41.0 °F 67% 30.08 in 10.0 mi Calm Calm - 0.00 in   Clear
8:35 AM 53.6 °F 41.0 °F 62% 30.09 in 10.0 mi North 5.8 mph - 0.00 in   Clear
8:55 AM 55.4 °F 41.0 °F 58% 30.09 in 9.0 mi North 6.9 mph - 0.00 in   Clear
9:15 AM 57.2 °F 41.0 °F 55% 30.10 in 10.0 mi North 5.8 mph - 0.00 in   Clear
9:35 AM 59.0 °F 39.2 °F 48% 30.11 in 10.0 mi NNE 6.9 mph - 0.00 in   Clear
9:55 AM 62.6 °F 37.4 °F 39% 30.12 in 10.0 mi NNE 3.5 mph - 0.00 in   Clear
10:15 AM 62.6 °F 35.6 °F 37% 30.12 in 10.0 mi NE 8.1 mph - 0.00 in   Clear
10:35 AM 64.4 °F 33.8 °F 32% 30.12 in 10.0 mi NNE 9.2 mph - 0.00 in   Clear
10:55 AM 66.2 °F 32.0 °F 28% 30.12 in 10.0 mi NE 10.4 mph - 0.00 in   Clear
11:15 AM 66.2 °F 32.0 °F 28% 30.12 in 10.0 mi NE 10.4 mph - 0.00 in   Clear
11:35 AM 66.2 °F 32.0 °F 28% 30.12 in 10.0 mi NE 6.9 mph - 0.00 in   Clear
11:55 AM 68.0 °F 33.8 °F 28% 30.12 in 10.0 mi Calm Calm - 0.00 in   Clear
12:15 PM 66.2 °F 33.8 °F 30% 30.11 in 10.0 mi East 3.5 mph - 0.00 in   Clear
12:35 PM 68.0 °F 33.8 °F 28% 30.11 in 10.0 mi East 4.6 mph - 0.00 in   Clear
12:55 PM 68.0 °F 35.6 °F 30% 30.11 in 10.0 mi ENE 6.9 mph - 0.00 in   Clear
1:15 PM 68.0 °F 35.6 °F 30% 30.10 in 10.0 mi SE 5.8 mph - 0.00 in   Clear
1:35 PM 66.2 °F 37.4 °F 35% 30.09 in 10.0 mi ESE 4.6 mph - 0.00 in   Clear
1:55 PM 68.0 °F 39.2 °F 35% 30.08 in 10.0 mi ESE 6.9 mph - 0.00 in   Clear
2:15 PM 68.0 °F 37.4 °F 33% 30.08 in 10.0 mi ESE 4.6 mph - 0.00 in   Clear
2:35 PM 68.0 °F 37.4 °F 33% 30.07 in 10.0 mi ESE 3.5 mph - 0.00 in   Clear
2:55 PM 68.0 °F 39.2 °F 35% 30.06 in 10.0 mi ESE 5.8 mph - 0.00 in   Clear
3:15 PM 68.0 °F 39.2 °F 35% 30.06 in 10.0 mi SSE 5.8 mph - 0.00 in   Clear
3:35 PM 68.0 °F 42.8 °F 40% 30.06 in 10.0 mi ESE 6.9 mph - 0.00 in   Clear
3:55 PM 66.2 °F 42.8 °F 43% 30.06 in 10.0 mi SE 5.8 mph - 0.00 in   Clear
4:15 PM 66.2 °F 41.0 °F 40% 30.06 in 10.0 mi SE 5.8 mph - 0.00 in   Clear
4:35 PM 66.2 °F 42.8 °F 43% 30.06 in 10.0 mi SE 6.9 mph - 0.00 in   Clear
4:55 PM 66.2 °F 42.8 °F 43% 30.06 in 9.0 mi South 5.8 mph - 0.00 in   Clear
5:15 PM 66.2 °F 44.6 °F 46% 30.06 in 9.0 mi SSE 3.5 mph - 0.00 in   Clear
5:35 PM 64.4 °F 46.4 °F 52% 30.06 in 9.0 mi SSE 3.5 mph - 0.00 in   Clear
5:55 PM 64.4 °F 46.4 °F 52% 30.06 in 9.0 mi SSE 4.6 mph - 0.00 in   Clear
6:15 PM 62.6 °F 48.2 °F 59% 30.06 in 9.0 mi Calm Calm - 0.00 in   Clear
6:35 PM 60.8 °F 48.2 °F 63% 30.06 in 10.0 mi Calm Calm - 0.00 in   Clear
6:55 PM 59.0 °F 48.2 °F 67% 30.07 in 10.0 mi Calm Calm - 0.00 in   Clear
7:15 PM 57.2 °F 48.2 °F 72% 30.07 in 10.0 mi Calm Calm - 0.00 in   Clear
7:35 PM 55.4 °F 48.2 °F 77% 30.07 in 10.0 mi Calm Calm - 0.00 in   Clear
7:55 PM 53.6 °F 46.4 °F 77% 30.07 in 10.0 mi Calm Calm - 0.00 in   Clear
8:15 PM 53.6 °F 48.2 °F 82% 30.07 in 10.0 mi Calm Calm - 0.00 in   Clear
8:35 PM 53.6 °F 48.2 °F 82% 30.07 in 10.0 mi Calm Calm - 0.00 in   Clear
8:55 PM 53.6 °F 48.2 °F 82% 30.07 in 10.0 mi Calm Calm - 0.00 in   Clear
9:15 PM 51.8 °F 48.2 °F 88% 30.06 in 10.0 mi Calm Calm - 0.00 in   Clear
9:35 PM 51.8 °F 48.2 °F 88% 30.06 in 10.0 mi Calm Calm - 0.00 in   Clear
9:55 PM 53.6 °F 48.2 °F 82% 30.06 in 10.0 mi Calm Calm - 0.00 in   Clear
10:15 PM 53.6 °F 50.0 °F 88% 30.06 in 9.0 mi Calm Calm - 0.00 in   Clear
10:35 PM 53.6 °F 50.0 °F 88% 30.06 in 9.0 mi Calm Calm - 0.00 in   Clear
10:55 PM 53.6 °F 50.0 °F 88% 30.06 in 10.0 mi Calm Calm - 0.00 in   Clear
11:15 PM 53.6 °F 50.0 °F 88% 30.06 in 10.0 mi Calm Calm - 0.00 in   Clear
11:35 PM 53.6 °F 50.0 °F 88% 30.06 in 10.0 mi Calm Calm - 0.00 in   Clear
11:55 PM 55.4 °F 51.8 °F 88% 30.05 in 10.0 mi Calm Calm - 0.00 in   Clear